Language: 


Des rapports , des résumés tant et plus, au choix de chacun....


Données Historiques de Météogheer
Journalier Rapport pour Décembre 28, 2017 Unitée:  Métrique    Impériale   Les deux
Suivant Jour »
Journalier Hebdomadaire Mensuel Annuel Sur mesure
  Max: Min: Moyenne:
Température: 6.3 °C -1.0 °C 2.2 °C
Point de rosée: 4.0 °C -3.0 °C 0.7 °C
Humidité: 98% 71% 89%
Vent: 23.8km/h 0.0km/h 6.9km/h
Rafales: 25.3km/h - -
Vent- - West
Pression: 1007.0 hPa 994.1 hPa -
Pluie: 0.0 mm    
Historical Graphs
 
 
Données tabulaires pour Décembre 28, 2017
Heure Température Point de rosée Pression Vent Vent Rafales Humidité Pluie Taux (Horaire) Conditions
00:01 4.0 °C 2.0 °C 994.1 hPa WNW 8.7 km/h 13.0 km/h 85% 0.0 mm
00:03 4.0 °C 2.0 °C 994.1 hPa NNW 7.6 km/h 13.0 km/h 85% 0.0 mm
00:07 3.9 °C 2.0 °C 994.1 hPa West 9.7 km/h 13.0 km/h 86% 0.0 mm
00:10 3.9 °C 2.0 °C 994.1 hPa NW 8.7 km/h 17.2 km/h 85% 0.0 mm
00:15 3.8 °C 2.0 °C 994.1 hPa WNW 9.3 km/h 17.2 km/h 85% 0.0 mm
00:20 3.7 °C 2.0 °C 994.1 hPa SSW 7.9 km/h 14.0 km/h 85% 0.0 mm
00:21 3.7 °C 2.0 °C 994.1 hPa SSW 7.9 km/h 14.0 km/h 85% 0.0 mm
00:23 3.7 °C 2.0 °C 994.1 hPa NNW 9.0 km/h 14.0 km/h 85% 0.0 mm
00:28 3.7 °C 2.0 °C 995.1 hPa NW 15.8 km/h 16.9 km/h 85% 0.0 mm
00:29 3.7 °C 2.0 °C 995.1 hPa NW 11.6 km/h 16.9 km/h 85% 0.0 mm
00:34 3.6 °C 2.0 °C 995.1 hPa West 6.4 km/h 19.8 km/h 85% 0.0 mm
00:36 3.6 °C 2.0 °C 995.1 hPa WNW 10.5 km/h 19.8 km/h 85% 0.0 mm
00:41 3.5 °C 2.0 °C 995.1 hPa West 4.7 km/h 19.8 km/h 85% 0.0 mm
00:42 3.5 °C 2.0 °C 995.1 hPa WNW 7.6 km/h 15.8 km/h 86% 0.0 mm
00:44 3.5 °C 2.0 °C 995.1 hPa West 10.1 km/h 13.7 km/h 86% 0.0 mm
00:49 3.3 °C 1.0 °C 995.1 hPa WNW 6.1 km/h 13.0 km/h 86% 0.0 mm
00:52 3.3 °C 1.0 °C 995.1 hPa West 5.5 km/h 13.0 km/h 86% 0.0 mm
00:57 3.1 °C 1.0 °C 995.1 hPa WNW 5.5 km/h 13.0 km/h 86% 0.0 mm
01:03 3.0 °C 1.0 °C 995.1 hPa West 4.7 km/h 13.0 km/h 86% 0.0 mm
01:08 2.8 °C 1.0 °C 995.1 hPa West 8.7 km/h 13.0 km/h 87% 0.0 mm
01:10 2.8 °C 1.0 °C 995.1 hPa NNW 5.8 km/h 11.9 km/h 87% 0.0 mm
01:12 2.7 °C 1.0 °C 996.2 hPa West 7.6 km/h 11.9 km/h 87% 0.0 mm
01:16 2.7 °C 1.0 °C 996.2 hPa SW 9.3 km/h 12.6 km/h 87% 0.0 mm
01:19 2.6 °C 1.0 °C 996.2 hPa West 14.0 km/h 14.0 km/h 87% 0.0 mm
01:24 2.5 °C 1.0 °C 996.2 hPa WNW 10.5 km/h 15.8 km/h 88% 0.0 mm
01:29 2.4 °C 1.0 °C 996.2 hPa West 6.9 km/h 15.8 km/h 88% 0.0 mm
01:34 2.3 °C 1.0 °C 996.2 hPa West 13.7 km/h 19.8 km/h 89% 0.0 mm
01:37 2.3 °C 1.0 °C 996.2 hPa West 10.1 km/h 19.8 km/h 89% 0.0 mm
01:38 2.3 °C 1.0 °C 996.2 hPa WNW 5.5 km/h 19.8 km/h 89% 0.0 mm
01:43 2.3 °C 1.0 °C 996.2 hPa West 7.9 km/h 17.2 km/h 89% 0.0 mm
01:48 2.4 °C 1.0 °C 996.2 hPa West 12.6 km/h 16.3 km/h 90% 0.0 mm
01:49 2.4 °C 1.0 °C 996.2 hPa West 7.9 km/h 16.3 km/h 90% 0.0 mm
01:51 2.4 °C 1.0 °C 996.2 hPa West 11.9 km/h 16.3 km/h 90% 0.0 mm
01:52 2.4 °C 1.0 °C 996.2 hPa West 13.7 km/h 16.3 km/h 90% 0.0 mm
01:57 2.5 °C 2.0 °C 996.8 hPa West 9.3 km/h 19.8 km/h 91% 0.0 mm
02:02 2.5 °C 2.0 °C 996.8 hPa West 12.2 km/h 19.8 km/h 91% 0.0 mm
02:05 2.5 °C 2.0 °C 996.8 hPa West 12.2 km/h 16.9 km/h 91% 0.0 mm
02:07 2.5 °C 2.0 °C 996.8 hPa West 10.5 km/h 16.9 km/h 91% 0.0 mm
02:11 2.5 °C 2.0 °C 996.8 hPa WSW 5.8 km/h 17.2 km/h 91% 0.0 mm
02:16 2.5 °C 2.0 °C 996.8 hPa WNW 17.7 km/h 17.7 km/h 91% 0.0 mm
02:21 2.6 °C 2.0 °C 996.8 hPa West 14.0 km/h 22.4 km/h 91% 0.0 mm
02:22 2.6 °C 2.0 °C 996.8 hPa West 14.0 km/h 22.4 km/h 91% 0.0 mm
02:28 2.6 °C 2.0 °C 996.8 hPa West 13.7 km/h 22.4 km/h 91% 0.0 mm
02:34 2.6 °C 2.0 °C 996.8 hPa WNW 4.7 km/h 17.2 km/h 91% 0.0 mm
02:35 2.6 °C 2.0 °C 996.8 hPa West 11.6 km/h 17.2 km/h 91% 0.0 mm
02:40 2.6 °C 2.0 °C 996.8 hPa West 6.4 km/h 20.6 km/h 91% 0.0 mm
02:47 2.4 °C 1.0 °C 996.8 hPa West 5.8 km/h 20.6 km/h 90% 0.0 mm
02:52 2.4 °C 1.0 °C 996.8 hPa West 13.7 km/h 17.7 km/h 90% 0.0 mm
02:53 2.4 °C 1.0 °C 996.8 hPa WNW 9.7 km/h 17.7 km/h 90% 0.0 mm
02:58 2.3 °C 1.0 °C 996.8 hPa West 10.5 km/h 17.7 km/h 89% 0.0 mm
02:59 2.3 °C 1.0 °C 996.8 hPa West 5.5 km/h 17.7 km/h 90% 0.0 mm
03:04 2.3 °C 1.0 °C 996.8 hPa West 12.6 km/h 15.8 km/h 90% 0.0 mm
03:05 2.3 °C 1.0 °C 996.8 hPa NNW 11.9 km/h 15.8 km/h 90% 0.0 mm
03:10 2.4 °C 1.0 °C 996.8 hPa West 9.7 km/h 15.8 km/h 90% 0.0 mm
03:14 2.4 °C 1.0 °C 996.8 hPa NNW 16.6 km/h 16.6 km/h 90% 0.0 mm
03:19 2.4 °C 1.0 °C 996.8 hPa WSW 5.5 km/h 16.6 km/h 90% 0.0 mm
03:20 2.4 °C 1.0 °C 996.8 hPa West 10.5 km/h 16.6 km/h 90% 0.0 mm
03:21 2.5 °C 1.0 °C 996.8 hPa West 8.7 km/h 16.6 km/h 90% 0.0 mm
03:25 2.5 °C 1.0 °C 996.8 hPa West 6.9 km/h 16.9 km/h 90% 0.0 mm
03:31 2.5 °C 1.0 °C 996.8 hPa WNW 14.3 km/h 17.2 km/h 90% 0.0 mm
03:36 2.5 °C 1.0 °C 996.8 hPa WSW 5.5 km/h 17.2 km/h 90% 0.0 mm
03:37 2.5 °C 1.0 °C 996.8 hPa West 7.9 km/h 17.2 km/h 90% 0.0 mm
03:42 2.4 °C 1.0 °C 996.2 hPa West 13.0 km/h 16.3 km/h 90% 0.0 mm
03:45 2.4 °C 1.0 °C 996.2 hPa WSW 13.0 km/h 16.3 km/h 90% 0.0 mm
03:47 2.4 °C 1.0 °C 996.2 hPa West 13.0 km/h 17.2 km/h 90% 0.0 mm
03:53 2.5 °C 2.0 °C 996.2 hPa South 10.5 km/h 20.1 km/h 91% 0.0 mm
03:54 2.5 °C 2.0 °C 996.2 hPa West 16.3 km/h 20.1 km/h 91% 0.0 mm
03:59 2.6 °C 2.0 °C 996.8 hPa WSW 15.1 km/h 20.1 km/h 91% 0.0 mm
04:00 2.6 °C 2.0 °C 996.8 hPa West 6.1 km/h 20.1 km/h 91% 0.0 mm
04:03 2.6 °C 2.0 °C 996.8 hPa West 4.0 km/h 16.6 km/h 91% 0.0 mm
04:08 2.6 °C 2.0 °C 996.8 hPa WSW 12.2 km/h 16.6 km/h 91% 0.0 mm
04:14 2.7 °C 2.0 °C 996.8 hPa WSW 23.3 km/h 23.3 km/h 91% 0.0 mm
04:19 2.7 °C 2.0 °C 996.8 hPa West 13.0 km/h 23.3 km/h 91% 0.0 mm
04:24 2.6 °C 1.0 °C 996.8 hPa WSW 10.1 km/h 21.2 km/h 90% 0.0 mm
04:29 2.4 °C 1.0 °C 997.9 hPa WSW 9.0 km/h 21.2 km/h 90% 0.0 mm
04:31 2.4 °C 1.0 °C 997.9 hPa WSW 12.6 km/h 18.0 km/h 90% 0.0 mm
04:33 2.3 °C 1.0 °C 997.9 hPa West 11.9 km/h 18.0 km/h 90% 0.0 mm
04:37 2.3 °C 1.0 °C 997.9 hPa WNW 11.1 km/h 14.0 km/h 90% 0.0 mm
04:42 2.3 °C 1.0 °C 997.9 hPa West 12.6 km/h 14.0 km/h 90% 0.0 mm
04:44 2.3 °C 1.0 °C 997.9 hPa WSW 9.0 km/h 13.7 km/h 91% 0.0 mm
04:45 2.3 °C 1.0 °C 997.9 hPa WSW 16.6 km/h 16.6 km/h 91% 0.0 mm
04:50 2.3 °C 1.0 °C 997.9 hPa West 12.6 km/h 16.6 km/h 91% 0.0 mm
04:51 2.2 °C 1.0 °C 997.9 hPa West 13.7 km/h 16.6 km/h 91% 0.0 mm
04:57 2.1 °C 1.0 °C 997.9 hPa West 8.7 km/h 16.9 km/h 90% 0.0 mm
04:58 2.1 °C 1.0 °C 997.9 hPa WSW 8.7 km/h 16.9 km/h 90% 0.0 mm
05:03 2.0 °C 1.0 °C 997.9 hPa WSW 9.0 km/h 16.9 km/h 90% 0.0 mm
05:09 1.6 °C 0.0 °C 997.9 hPa WSW 11.6 km/h 13.7 km/h 90% 0.0 mm
05:11 1.5 °C 0.0 °C 997.9 hPa WSW 7.6 km/h 11.9 km/h 90% 0.0 mm
05:16 1.4 °C 0.0 °C 997.9 hPa WSW 10.5 km/h 13.7 km/h 90% 0.0 mm
05:20 1.3 °C 0.0 °C 997.9 hPa WSW 9.3 km/h 13.7 km/h 90% 0.0 mm
05:21 1.3 °C 0.0 °C 997.9 hPa West 14.0 km/h 14.0 km/h 90% 0.0 mm
05:22 1.2 °C 0.0 °C 997.9 hPa WSW 12.2 km/h 14.0 km/h 90% 0.0 mm
05:27 1.2 °C 0.0 °C 997.9 hPa West 13.7 km/h 14.0 km/h 91% 0.0 mm
05:28 1.1 °C 0.0 °C 997.9 hPa West 7.6 km/h 14.0 km/h 91% 0.0 mm
05:33 1.1 °C 0.0 °C 997.9 hPa WSW 7.6 km/h 13.7 km/h 91% 0.0 mm
05:34 1.1 °C 0.0 °C 997.9 hPa WSW 11.6 km/h 13.7 km/h 91% 0.0 mm
05:39 1.0 °C 0.0 °C 997.9 hPa West 6.4 km/h 13.0 km/h 92% 0.0 mm
05:40 1.0 °C 0.0 °C 997.9 hPa West 11.6 km/h 13.0 km/h 92% 0.0 mm
05:45 0.9 °C 0.0 °C 997.9 hPa West 5.8 km/h 13.0 km/h 93% 0.0 mm
05:47 0.9 °C 0.0 °C 997.9 hPa West 12.6 km/h 12.6 km/h 93% 0.0 mm
05:52 0.8 °C 0.0 °C 997.9 hPa SSW 9.7 km/h 12.6 km/h 93% 0.0 mm
05:53 0.8 °C 0.0 °C 997.9 hPa West 9.7 km/h 13.0 km/h 93% 0.0 mm
05:58 0.8 °C 0.0 °C 997.9 hPa WSW 9.7 km/h 13.0 km/h 94% 0.0 mm
05:59 0.8 °C 0.0 °C 997.9 hPa West 9.3 km/h 13.0 km/h 94% 0.0 mm
06:00 0.8 °C 0.0 °C 997.9 hPa West 9.7 km/h 13.7 km/h 94% 0.0 mm
06:04 0.8 °C 0.0 °C 997.9 hPa WSW 10.1 km/h 13.7 km/h 94% 0.0 mm
06:09 0.7 °C 0.0 °C 997.9 hPa WSW 7.9 km/h 10.1 km/h 94% 0.0 mm
06:14 0.6 °C 0.0 °C 997.9 hPa West 7.6 km/h 10.5 km/h 94% 0.0 mm
06:17 0.6 °C 0.0 °C 997.9 hPa West 4.7 km/h 10.5 km/h 94% 0.0 mm
06:20 0.6 °C 0.0 °C 997.9 hPa Calm   10.5 km/h 94% 0.0 mm
06:21 0.6 °C 0.0 °C 997.9 hPa Calm   10.5 km/h 94% 0.0 mm
06:24 0.5 °C 0.0 °C 997.9 hPa West 9.0 km/h 9.7 km/h 95% 0.0 mm
06:29 0.5 °C 0.0 °C 997.9 hPa WSW 5.8 km/h 9.7 km/h 95% 0.0 mm
06:33 0.4 °C 0.0 °C 997.9 hPa Calm   9.7 km/h 95% 0.0 mm
06:38 0.3 °C 0.0 °C 997.9 hPa WSW 9.0 km/h 9.0 km/h 95% 0.0 mm
06:43 0.3 °C 0.0 °C 998.9 hPa WSW 7.6 km/h 9.0 km/h 95% 0.0 mm
06:49 0.3 °C 0.0 °C 998.9 hPa WSW 7.9 km/h 10.5 km/h 95% 0.0 mm
06:54 0.3 °C 0.0 °C 998.9 hPa WSW 4.7 km/h 10.5 km/h 96% 0.0 mm
06:58 0.3 °C 0.0 °C 998.9 hPa WSW 8.7 km/h 10.5 km/h 96% 0.0 mm
07:03 0.3 °C 0.0 °C 998.9 hPa WSW 9.7 km/h 10.5 km/h 97% 0.0 mm
07:06 0.4 °C 0.0 °C 998.9 hPa WSW 9.0 km/h 12.2 km/h 97% 0.0 mm
07:11 0.4 °C 0.0 °C 999.9 hPa WSW 5.0 km/h 12.2 km/h 97% 0.0 mm
07:13 0.4 °C 0.0 °C 999.9 hPa West 6.1 km/h 12.2 km/h 97% 0.0 mm
07:17 0.4 °C 0.0 °C 999.9 hPa West 9.0 km/h 10.5 km/h 97% 0.0 mm
07:19 0.4 °C 0.0 °C 999.9 hPa West 4.7 km/h 10.5 km/h 97% 0.0 mm
07:24 0.3 °C 0.0 °C 999.9 hPa WSW 6.9 km/h 9.7 km/h 97% 0.0 mm
07:27 0.2 °C 0.0 °C 998.9 hPa West 2.1 km/h 9.7 km/h 97% 0.0 mm
07:32 0.2 °C 0.0 °C 998.9 hPa WNW 5.5 km/h 9.7 km/h 97% 0.0 mm
07:36 0.1 °C 0.0 °C 998.9 hPa Calm   7.6 km/h 97% 0.0 mm
07:41 0.1 °C 0.0 °C 998.9 hPa West 2.1 km/h 7.6 km/h 98% 0.0 mm
07:42 0.1 °C 0.0 °C 998.9 hPa WSW 1.4 km/h 7.6 km/h 98% 0.0 mm
07:47 0.1 °C 0.0 °C 998.9 hPa Calm   4.3 km/h 98% 0.0 mm
07:51 0.0 °C -1.0 °C 998.9 hPa Calm   4.3 km/h 98% 0.0 mm
07:56 -0.2 °C -1.0 °C 998.9 hPa WSW 5.5 km/h 5.5 km/h 97% 0.0 mm
08:00 -0.3 °C -1.0 °C 998.9 hPa Calm   5.5 km/h 97% 0.0 mm
08:02 -0.3 °C -1.0 °C 998.9 hPa Calm   5.5 km/h 97% 0.0 mm
08:07 -0.4 °C -1.0 °C 998.9 hPa Calm   5.0 km/h 97% 0.0 mm
08:12 -0.5 °C -2.0 °C 998.9 hPa Calm   5.0 km/h 97% 0.0 mm
08:13 -0.5 °C -2.0 °C 998.9 hPa Calm   5.0 km/h 97% 0.0 mm
08:18 -0.5 °C -2.0 °C 998.9 hPa Calm   6.1 km/h 97% 0.0 mm
08:20 -0.5 °C -1.0 °C 998.9 hPa WSW 6.9 km/h 6.9 km/h 98% 0.0 mm
08:25 -0.4 °C -1.0 °C 998.9 hPa WSW 6.1 km/h 10.5 km/h 98% 0.0 mm
08:30 -0.4 °C -1.0 °C 998.9 hPa WSW 4.7 km/h 10.5 km/h 98% 0.0 mm
08:32 -0.4 °C -1.0 °C 998.9 hPa West 6.1 km/h 9.0 km/h 98% 0.0 mm
08:37 -0.4 °C -1.0 °C 998.9 hPa WSW 7.6 km/h 8.7 km/h 98% 0.0 mm
08:42 -0.3 °C -1.0 °C 999.9 hPa Calm   8.7 km/h 98% 0.0 mm
08:43 -0.3 °C -1.0 °C 999.9 hPa Calm   8.7 km/h 98% 0.0 mm
08:45 -0.3 °C -1.0 °C 999.9 hPa WSW 6.4 km/h 8.7 km/h 98% 0.0 mm
08:50 -0.2 °C -1.0 °C 999.9 hPa West 7.2 km/h 11.6 km/h 98% 0.0 mm
08:55 -0.2 °C -1.0 °C 999.9 hPa Calm   11.6 km/h 98% 0.0 mm
08:57 -0.2 °C -1.0 °C 999.9 hPa West 6.4 km/h 11.6 km/h 98% 0.0 mm
08:58 -0.1 °C -1.0 °C 999.9 hPa Calm   9.0 km/h 98% 0.0 mm
09:03 0.0 °C -1.0 °C 999.9 hPa WNW 2.6 km/h 7.6 km/h 98% 0.0 mm
09:05 0.0 °C -1.0 °C 999.9 hPa West 5.5 km/h 7.6 km/h 98% 0.0 mm
09:10 0.1 °C 0.0 °C 999.9 hPa West 7.6 km/h 7.6 km/h 98% 0.0 mm
09:15 0.2 °C 0.0 °C 999.9 hPa WSW 1.8 km/h 7.6 km/h 98% 0.0 mm
09:17 0.2 °C 0.0 °C 999.9 hPa Calm   7.6 km/h 98% 0.0 mm
09:22 0.3 °C 1.0 °C 999.9 hPa Calm   10.5 km/h 98% 0.0 mm
09:25 0.3 °C 1.0 °C 999.9 hPa West 9.7 km/h 10.5 km/h 98% 0.0 mm
09:27 0.4 °C 1.0 °C 1000.9 hPa West 5.8 km/h 10.5 km/h 98% 0.0 mm
09:32 0.4 °C 1.0 °C 1000.9 hPa West 6.1 km/h 10.1 km/h 98% 0.0 mm
09:34 0.5 °C 1.0 °C 1000.9 hPa WSW 5.8 km/h 10.1 km/h 98% 0.0 mm
09:39 0.5 °C 1.0 °C 1000.9 hPa West 7.6 km/h 9.7 km/h 98% 0.0 mm
09:43 0.6 °C 1.0 °C 1000.9 hPa West 5.8 km/h 12.6 km/h 98% 0.0 mm
09:48 0.7 °C 1.0 °C 1000.9 hPa West 6.9 km/h 12.6 km/h 98% 0.0 mm
09:52 0.7 °C 1.0 °C 1000.9 hPa WSW 6.4 km/h 11.9 km/h 98% 0.0 mm
09:53 0.7 °C 1.0 °C 1000.9 hPa SW 5.8 km/h 11.9 km/h 98% 0.0 mm
09:58 0.8 °C 1.0 °C 1000.9 hPa West 4.0 km/h 11.9 km/h 98% 0.0 mm
09:59 0.8 °C 1.0 °C 1000.9 hPa West 9.0 km/h 11.9 km/h 98% 0.0 mm
10:04 0.9 °C 1.0 °C 1000.9 hPa WSW 3.5 km/h 11.6 km/h 98% 0.0 mm
10:05 0.9 °C 1.0 °C 1000.9 hPa West 10.1 km/h 11.6 km/h 98% 0.0 mm
10:10 1.0 °C 1.0 °C 1000.9 hPa WSW 7.6 km/h 14.0 km/h 98% 0.0 mm
10:11 1.0 °C 1.0 °C 1000.9 hPa West 6.4 km/h 14.0 km/h 98% 0.0 mm
10:15 1.2 °C 1.0 °C 1000.9 hPa WSW 5.0 km/h 14.0 km/h 98% 0.0 mm
10:20 1.4 °C 1.0 °C 1000.9 hPa WSW 6.9 km/h 13.0 km/h 98% 0.0 mm
10:21 1.5 °C 2.0 °C 1000.9 hPa West 4.0 km/h 13.0 km/h 98% 0.0 mm
10:26 1.7 °C 2.0 °C 1000.9 hPa WSW 10.1 km/h 13.7 km/h 98% 0.0 mm
10:28 1.7 °C 2.0 °C 1000.9 hPa WSW 6.1 km/h 13.7 km/h 98% 0.0 mm
10:32 1.9 °C 2.0 °C 1000.9 hPa WNW 8.7 km/h 13.7 km/h 98% 0.0 mm
10:35 2.0 °C 2.0 °C 1000.9 hPa Calm   13.7 km/h 98% 0.0 mm
10:40 2.1 °C 2.0 °C 1000.9 hPa West 4.3 km/h 12.6 km/h 98% 0.0 mm
10:41 2.2 °C 2.0 °C 999.9 hPa West 9.0 km/h 12.6 km/h 98% 0.0 mm
10:46 2.4 °C 3.0 °C 999.9 hPa West 6.4 km/h 15.8 km/h 98% 0.0 mm
10:48 2.5 °C 3.0 °C 999.9 hPa West 7.9 km/h 15.8 km/h 98% 0.0 mm
10:53 2.7 °C 3.0 °C 999.9 hPa Calm   13.7 km/h 98% 0.0 mm
10:55 2.7 °C 3.0 °C 999.9 hPa WSW 9.3 km/h 13.7 km/h 98% 0.0 mm
11:00 3.0 °C 3.0 °C 1000.9 hPa West 7.9 km/h 15.1 km/h 98% 0.0 mm
11:05 3.0 °C 3.0 °C 1000.9 hPa West 14.3 km/h 15.1 km/h 98% 0.0 mm
11:10 3.3 °C 3.0 °C 999.9 hPa WSW 8.7 km/h 14.3 km/h 98% 0.0 mm
11:14 3.4 °C 3.0 °C 999.9 hPa West 5.8 km/h 14.3 km/h 98% 0.0 mm
11:16 3.4 °C 3.0 °C 999.9 hPa West 6.4 km/h 13.7 km/h 98% 0.0 mm
11:21 3.6 °C 4.0 °C 999.9 hPa WSW 15.4 km/h 18.0 km/h 98% 0.0 mm
11:24 3.6 °C 4.0 °C 999.9 hPa West 9.3 km/h 18.0 km/h 98% 0.0 mm
11:26 3.6 °C 3.0 °C 999.9 hPa West 9.7 km/h 18.0 km/h 97% 0.0 mm
11:31 3.8 °C 3.0 °C 999.9 hPa West 9.3 km/h 17.2 km/h 97% 0.0 mm
11:33 3.9 °C 4.0 °C 999.9 hPa West 9.0 km/h 17.2 km/h 97% 0.0 mm
11:37 4.1 °C 4.0 °C 999.9 hPa SW 11.9 km/h 17.2 km/h 96% 0.0 mm
11:38 4.1 °C 4.0 °C 999.9 hPa SW 11.9 km/h 17.2 km/h 96% 0.0 mm
11:43 4.1 °C 3.0 °C 1000.9 hPa West 12.6 km/h 16.6 km/h 95% 0.0 mm
11:48 4.2 °C 3.0 °C 1000.9 hPa West 20.1 km/h 20.6 km/h 94% 0.0 mm
11:49 4.2 °C 3.0 °C 1000.9 hPa West 16.9 km/h 20.6 km/h 94% 0.0 mm
11:51 4.3 °C 3.0 °C 1000.9 hPa WNW 5.0 km/h 20.6 km/h 93% 0.0 mm
11:56 4.4 °C 3.0 °C 1000.9 hPa West 9.0 km/h 20.6 km/h 92% 0.0 mm
11:58 4.4 °C 3.0 °C 1000.9 hPa West 12.6 km/h 20.6 km/h 92% 0.0 mm
11:59 4.4 °C 3.0 °C 1000.9 hPa West 17.2 km/h 17.7 km/h 92% 0.0 mm
12:04 4.6 °C 3.0 °C 1000.9 hPa West 14.0 km/h 21.2 km/h 90% 0.0 mm
12:10 4.7 °C 3.0 °C 1000.9 hPa WSW 11.9 km/h 21.2 km/h 89% 0.0 mm
12:15 4.7 °C 3.0 °C 1000.9 hPa West 5.5 km/h 20.6 km/h 88% 0.0 mm
12:17 4.8 °C 3.0 °C 1000.9 hPa WSW 14.3 km/h 20.6 km/h 87% 0.0 mm
12:25 4.9 °C 3.0 °C 1000.9 hPa West 14.0 km/h 17.7 km/h 87% 0.0 mm
12:26 5.0 °C 3.0 °C 1000.9 hPa WSW 9.3 km/h 17.7 km/h 86% 0.0 mm
12:31 5.0 °C 3.0 °C 1000.9 hPa West 12.2 km/h 21.2 km/h 86% 0.0 mm
12:36 5.0 °C 3.0 °C 1000.9 hPa SW 23.8 km/h 24.5 km/h 84% 0.0 mm
12:40 5.1 °C 3.0 °C 1000.9 hPa West 13.0 km/h 24.5 km/h 83% 0.0 mm
12:43 5.1 °C 3.0 °C 1000.9 hPa WSW 14.0 km/h 24.5 km/h 83% 0.0 mm
12:48 5.1 °C 2.0 °C 1000.9 hPa WSW 9.7 km/h 20.6 km/h 81% 0.0 mm
12:49 5.2 °C 3.0 °C 1000.9 hPa West 9.0 km/h 20.6 km/h 82% 0.0 mm
12:54 5.2 °C 2.0 °C 1000.9 hPa WSW 16.3 km/h 21.2 km/h 81% 0.0 mm
12:59 5.2 °C 2.0 °C 1000.9 hPa West 21.2 km/h 21.2 km/h 80% 0.0 mm
13:01 5.3 °C 2.0 °C 1000.9 hPa West 16.9 km/h 21.2 km/h 79% 0.0 mm
13:02 5.3 °C 2.0 °C 1000.9 hPa West 14.0 km/h 21.2 km/h 79% 0.0 mm
13:06 5.4 °C 2.0 °C 1000.9 hPa WSW 20.6 km/h 21.2 km/h 79% 0.0 mm
13:11 5.5 °C 3.0 °C 1001.9 hPa WSW 12.6 km/h 20.6 km/h 79% 0.0 mm
13:16 5.6 °C 3.0 °C 1001.9 hPa WSW 20.9 km/h 20.9 km/h 79% 0.0 mm
13:21 5.6 °C 3.0 °C 1001.9 hPa WSW 16.9 km/h 20.9 km/h 79% 0.0 mm
13:26 5.6 °C 2.0 °C 1001.9 hPa West 13.7 km/h 20.9 km/h 76% 0.0 mm
13:27 5.6 °C 2.0 °C 1001.9 hPa WSW 13.7 km/h 20.1 km/h 76% 0.0 mm
13:35 5.7 °C 2.0 °C 1001.9 hPa WSW 16.6 km/h 16.9 km/h 77% 0.0 mm
13:38 5.8 °C 3.0 °C 1001.9 hPa WSW 13.7 km/h 21.6 km/h 77% 0.0 mm
13:40 5.8 °C 2.0 °C 1001.9 hPa WSW 14.3 km/h 21.6 km/h 76% 0.0 mm
13:45 5.8 °C 2.0 °C 1001.9 hPa West 13.0 km/h 21.6 km/h 76% 0.0 mm
13:50 5.8 °C 2.0 °C 1001.9 hPa WSW 11.6 km/h 21.2 km/h 76% 0.0 mm
13:52 5.8 °C 2.0 °C 1001.9 hPa West 13.7 km/h 21.2 km/h 76% 0.0 mm
13:57 5.8 °C 2.0 °C 1001.9 hPa WSW 13.0 km/h 19.8 km/h 75% 0.0 mm
14:02 6.0 °C 2.0 °C 1001.9 hPa West 10.5 km/h 17.7 km/h 75% 0.0 mm
14:03 6.0 °C 2.0 °C 1001.9 hPa West 13.7 km/h 17.7 km/h 75% 0.0 mm
14:08 5.9 °C 2.0 °C 1001.9 hPa West 11.9 km/h 17.7 km/h 75% 0.0 mm
14:13 6.0 °C 2.0 °C 1001.9 hPa West 9.7 km/h 19.8 km/h 75% 0.0 mm
14:18 6.1 °C 2.0 °C 1001.9 hPa West 10.5 km/h 19.8 km/h 75% 0.0 mm
14:23 6.2 °C 3.0 °C 1001.9 hPa WNW 19.5 km/h 19.5 km/h 75% 0.0 mm
14:24 6.1 °C 2.0 °C 1001.9 hPa West 20.1 km/h 20.1 km/h 74% 0.0 mm
14:29 6.2 °C 2.0 °C 1001.9 hPa WSW 9.7 km/h 20.1 km/h 73% 0.0 mm
14:34 6.3 °C 2.0 °C 1001.9 hPa WSW 12.6 km/h 17.7 km/h 74% 0.0 mm
14:40 6.2 °C 2.0 °C 1001.9 hPa West 14.0 km/h 20.1 km/h 72% 0.0 mm
14:41 6.2 °C 2.0 °C 1001.9 hPa West 12.6 km/h 20.1 km/h 72% 0.0 mm
14:46 6.2 °C 2.0 °C 1001.9 hPa SW 14.0 km/h 20.1 km/h 72% 0.0 mm
14:49 6.2 °C 2.0 °C 1001.9 hPa WNW 15.4 km/h 25.3 km/h 72% 0.0 mm
14:52 6.2 °C 2.0 °C 1001.9 hPa WSW 6.9 km/h 25.3 km/h 71% 0.0 mm
14:57 6.2 °C 2.0 °C 1001.9 hPa WSW 11.9 km/h 25.3 km/h 72% 0.0 mm
14:58 6.2 °C 2.0 °C 1001.9 hPa West 13.0 km/h 19.5 km/h 72% 0.0 mm
15:05 6.3 °C 2.0 °C 1001.9 hPa West 12.6 km/h 21.2 km/h 72% 0.0 mm
15:07 6.3 °C 2.0 °C 1001.9 hPa West 12.2 km/h 21.2 km/h 72% 0.0 mm
15:11 6.2 °C 2.0 °C 1001.9 hPa West 10.1 km/h 20.1 km/h 73% 0.0 mm
15:13 6.2 °C 2.0 °C 1001.9 hPa West 17.7 km/h 20.1 km/h 72% 0.0 mm
15:16 6.2 °C 2.0 °C 1001.9 hPa West 12.2 km/h 18.3 km/h 72% 0.0 mm
15:21 6.1 °C 2.0 °C 1001.9 hPa WNW 8.7 km/h 20.9 km/h 72% 0.0 mm
15:26 6.2 °C 2.0 °C 1002.9 hPa WSW 12.6 km/h 20.9 km/h 72% 0.0 mm
15:28 6.1 °C 2.0 °C 1002.9 hPa West 17.2 km/h 20.9 km/h 72% 0.0 mm
15:33 6.1 °C 2.0 °C 1002.9 hPa West 17.7 km/h 20.9 km/h 72% 0.0 mm
15:35 6.0 °C 2.0 °C 1002.9 hPa WSW 10.1 km/h 20.9 km/h 72% 0.0 mm
15:36 6.0 °C 2.0 °C 1002.9 hPa West 10.5 km/h 20.9 km/h 72% 0.0 mm
15:41 6.0 °C 2.0 °C 1002.9 hPa West 12.6 km/h 19.8 km/h 73% 0.0 mm
15:42 6.0 °C 2.0 °C 1002.9 hPa West 4.0 km/h 19.8 km/h 73% 0.0 mm
15:46 6.0 °C 2.0 °C 1002.9 hPa WSW 9.0 km/h 16.3 km/h 74% 0.0 mm
15:50 5.9 °C 2.0 °C 1002.9 hPa West 4.0 km/h 12.6 km/h 74% 0.0 mm
15:55 5.8 °C 2.0 °C 1002.9 hPa West 2.6 km/h 10.1 km/h 75% 0.0 mm
15:56 5.7 °C 2.0 °C 1002.9 hPa West 1.8 km/h 10.1 km/h 75% 0.0 mm
16:01 5.6 °C 2.0 °C 1002.9 hPa West 10.5 km/h 17.2 km/h 74% 0.0 mm
16:02 5.5 °C 2.0 °C 1002.9 hPa WSW 9.7 km/h 17.2 km/h 74% 0.0 mm
16:04 5.4 °C 1.0 °C 1002.9 hPa West 9.3 km/h 17.2 km/h 74% 0.0 mm
16:08 5.3 °C 1.0 °C 1002.9 hPa West 8.7 km/h 13.7 km/h 74% 0.0 mm
16:11 5.1 °C 1.0 °C 1002.9 hPa West 7.6 km/h 11.1 km/h 74% 0.0 mm
16:13 5.0 °C 1.0 °C 1002.9 hPa West 6.1 km/h 11.1 km/h 75% 0.0 mm
16:18 4.8 °C 1.0 °C 1002.9 hPa Calm   10.1 km/h 75% 0.0 mm
16:23 4.7 °C 1.0 °C 1002.9 hPa WSW 9.0 km/h 11.6 km/h 75% 0.0 mm
16:25 4.6 °C 1.0 °C 1002.9 hPa WSW 9.7 km/h 11.6 km/h 76% 0.0 mm
16:29 4.5 °C 1.0 °C 1002.9 hPa West 6.9 km/h 12.6 km/h 76% 0.0 mm
16:30 4.4 °C 1.0 °C 1002.9 hPa West 6.9 km/h 12.6 km/h 76% 0.0 mm
16:35 4.3 °C 1.0 °C 1002.9 hPa WSW 10.1 km/h 10.5 km/h 76% 0.0 mm
16:39 4.1 °C 0.0 °C 1002.9 hPa West 9.0 km/h 10.5 km/h 76% 0.0 mm
16:44 3.9 °C 1.0 °C 1001.9 hPa Calm   10.5 km/h 77% 0.0 mm
16:50 3.6 °C 0.0 °C 1001.9 hPa Calm   7.6 km/h 77% 0.0 mm
16:52 3.4 °C 0.0 °C 1001.9 hPa Calm   6.1 km/h 77% 0.0 mm
16:58 3.1 °C 0.0 °C 1002.9 hPa Calm   6.1 km/h 77% 0.0 mm
17:01 3.1 °C 0.0 °C 1002.9 hPa West 5.0 km/h 5.5 km/h 78% 0.0 mm
17:06 2.9 °C 0.0 °C 1002.9 hPa Calm   6.1 km/h 79% 0.0 mm
17:08 2.8 °C 0.0 °C 1002.9 hPa Calm   6.9 km/h 79% 0.0 mm
17:13 2.7 °C 0.0 °C 1003.9 hPa WSW 6.1 km/h 6.9 km/h 79% 0.0 mm
17:18 2.4 °C 0.0 °C 1003.9 hPa Calm   6.1 km/h 80% 0.0 mm
17:19 2.4 °C 0.0 °C 1003.9 hPa Calm   6.1 km/h 80% 0.0 mm
17:24 2.1 °C -1.0 °C 1003.9 hPa Calm   5.5 km/h 80% 0.0 mm
17:28 2.0 °C -1.0 °C 1003.9 hPa Calm   4.3 km/h 80% 0.0 mm
17:33 1.9 °C -1.0 °C 1003.9 hPa West 7.9 km/h 7.9 km/h 81% 0.0 mm
17:37 1.9 °C -1.0 °C 1003.9 hPa WSW 7.9 km/h 9.0 km/h 82% 0.0 mm
17:38 1.9 °C -1.0 °C 1003.9 hPa WSW 9.3 km/h 9.3 km/h 83% 0.0 mm
17:44 2.0 °C 0.0 °C 1003.9 hPa West 8.7 km/h 11.9 km/h 84% 0.0 mm
17:49 2.0 °C 0.0 °C 1003.9 hPa WSW 8.7 km/h 11.9 km/h 85% 0.0 mm
17:50 2.0 °C 0.0 °C 1003.9 hPa West 6.9 km/h 11.9 km/h 85% 0.0 mm
17:51 2.0 °C 0.0 °C 1003.9 hPa West 1.4 km/h 11.9 km/h 85% 0.0 mm
17:56 2.1 °C 0.0 °C 1003.9 hPa Calm   10.1 km/h 86% 0.0 mm
17:58 2.1 °C 1.0 °C 1003.9 hPa West 7.9 km/h 10.1 km/h 87% 0.0 mm
18:01 2.1 °C 1.0 °C 1003.9 hPa WSW 7.9 km/h 10.1 km/h 87% 0.0 mm
18:06 2.0 °C 0.0 °C 1003.9 hPa Calm   9.7 km/h 86% 0.0 mm
18:07 2.0 °C 0.0 °C 1003.9 hPa Calm   9.3 km/h 86% 0.0 mm
18:12 1.9 °C 0.0 °C 1005.0 hPa Calm   7.9 km/h 87% 0.0 mm
18:15 1.9 °C 0.0 °C 1005.0 hPa Calm   2.6 km/h 87% 0.0 mm
18:19 1.7 °C 0.0 °C 1005.0 hPa Calm   2.6 km/h 86% 0.0 mm
18:24 1.5 °C 0.0 °C 1005.0 hPa Calm     86% 0.0 mm
18:29 1.3 °C -1.0 °C 1005.0 hPa Calm     86% 0.0 mm
18:34 1.1 °C -1.0 °C 1005.0 hPa Calm     86% 0.0 mm
18:35 1.1 °C -1.0 °C 1005.0 hPa Calm     86% 0.0 mm
18:40 1.0 °C -1.0 °C 1005.0 hPa Calm     86% 0.0 mm
18:41 0.9 °C -1.0 °C 1005.0 hPa SW 4.0 km/h 4.0 km/h 87% 0.0 mm
18:46 0.8 °C -1.0 °C 1005.0 hPa Calm   4.3 km/h 87% 0.0 mm
18:50 0.7 °C -1.0 °C 1005.0 hPa Calm   4.3 km/h 87% 0.0 mm
18:55 0.6 °C -1.0 °C 1005.0 hPa Calm     88% 0.0 mm
18:56 0.6 °C -1.0 °C 1005.0 hPa Calm     88% 0.0 mm
19:01 0.7 °C -1.0 °C 1005.0 hPa Calm   4.7 km/h 89% 0.0 mm
19:05 0.7 °C -1.0 °C 1005.0 hPa Calm   4.7 km/h 89% 0.0 mm
19:07 0.7 °C -1.0 °C 1005.0 hPa Calm   4.7 km/h 89% 0.0 mm
19:10 0.7 °C -1.0 °C 1005.0 hPa Calm     89% 0.0 mm
19:14 0.7 °C -1.0 °C 1003.9 hPa Calm     89% 0.0 mm
19:16 0.7 °C -1.0 °C 1003.9 hPa Calm     89% 0.0 mm
19:21 0.6 °C -1.0 °C 1003.9 hPa Calm     90% 0.0 mm
19:22 0.6 °C -1.0 °C 1003.9 hPa Calm     90% 0.0 mm
19:26 0.5 °C -1.0 °C 1005.0 hPa Calm     90% 0.0 mm
19:31 0.6 °C -1.0 °C 1005.0 hPa Calm     90% 0.0 mm
19:40 0.5 °C 0.0 °C 1005.0 hPa Calm     91% 0.0 mm
19:43 0.6 °C 0.0 °C 1003.9 hPa Calm   2.1 km/h 91% 0.0 mm
19:48 0.8 °C 0.0 °C 1003.9 hPa West 5.8 km/h 9.0 km/h 92% 0.0 mm
19:49 0.9 °C 0.0 °C 1003.9 hPa West 4.3 km/h 9.0 km/h 92% 0.0 mm
19:54 0.9 °C 0.0 °C 1003.9 hPa West 7.9 km/h 9.0 km/h 93% 0.0 mm
19:58 0.9 °C 0.0 °C 1005.0 hPa West 6.9 km/h 9.0 km/h 93% 0.0 mm
20:03 0.9 °C 0.0 °C 1005.0 hPa West 6.9 km/h 9.0 km/h 93% 0.0 mm
20:07 0.9 °C 0.0 °C 1005.0 hPa Calm   9.0 km/h 93% 0.0 mm
20:12 0.9 °C 0.0 °C 1006.0 hPa West 3.2 km/h 9.0 km/h 93% 0.0 mm
20:16 0.8 °C 0.0 °C 1006.0 hPa Calm   8.7 km/h 92% 0.0 mm
20:21 0.7 °C 0.0 °C 1006.0 hPa Calm   6.1 km/h 92% 0.0 mm
20:26 0.7 °C 0.0 °C 1006.0 hPa West 4.0 km/h 6.1 km/h 92% 0.0 mm
20:31 0.6 °C 0.0 °C 1006.0 hPa Calm   6.4 km/h 92% 0.0 mm
20:33 0.5 °C 0.0 °C 1006.0 hPa Calm   7.6 km/h 92% 0.0 mm
20:38 0.4 °C -1.0 °C 1006.0 hPa Calm   7.6 km/h 92% 0.0 mm
20:40 0.4 °C -1.0 °C 1006.0 hPa Calm   7.6 km/h 92% 0.0 mm
20:45 0.4 °C -1.0 °C 1006.0 hPa Calm   5.5 km/h 92% 0.0 mm
20:46 0.4 °C -1.0 °C 1006.0 hPa West 6.4 km/h 6.4 km/h 92% 0.0 mm
20:52 0.5 °C 0.0 °C 1006.0 hPa Calm   6.9 km/h 93% 0.0 mm
20:57 0.5 °C 0.0 °C 1006.0 hPa West 5.5 km/h 7.2 km/h 93% 0.0 mm
21:01 0.5 °C 0.0 °C 1006.0 hPa WSW 6.4 km/h 7.2 km/h 93% 0.0 mm
21:07 0.5 °C 0.0 °C 1006.0 hPa West 6.1 km/h 7.9 km/h 93% 0.0 mm
21:12 0.6 °C 0.0 °C 1006.0 hPa Calm   7.6 km/h 94% 0.0 mm
21:15 0.6 °C 0.0 °C 1006.0 hPa Calm   6.9 km/h 94% 0.0 mm
21:20 0.4 °C 0.0 °C 1006.0 hPa Calm   5.5 km/h 93% 0.0 mm
21:25 0.4 °C 0.0 °C 1006.0 hPa Calm     93% 0.0 mm
21:27 0.4 °C 0.0 °C 1006.0 hPa Calm     93% 0.0 mm
21:32 0.2 °C -1.0 °C 1006.0 hPa Calm     93% 0.0 mm
21:37 0.1 °C -1.0 °C 1006.0 hPa Calm     92% 0.0 mm
21:40 0.1 °C -1.0 °C 1007.0 hPa Calm     93% 0.0 mm
21:42 0.1 °C -1.0 °C 1007.0 hPa Calm     93% 0.0 mm
21:47 0.2 °C -1.0 °C 1007.0 hPa Calm     93% 0.0 mm
21:50 0.3 °C 0.0 °C 1007.0 hPa Calm     94% 0.0 mm
21:55 0.3 °C 0.0 °C 1007.0 hPa Calm     94% 0.0 mm
22:00 0.3 °C 0.0 °C 1007.0 hPa Calm     94% 0.0 mm
22:05 0.4 °C 0.0 °C 1007.0 hPa Calm     94% 0.0 mm
22:06 0.4 °C 0.0 °C 1007.0 hPa Calm     94% 0.0 mm
22:07 0.4 °C 0.0 °C 1007.0 hPa Calm     94% 0.0 mm
22:12 0.3 °C 0.0 °C 1007.0 hPa Calm     94% 0.0 mm
22:13 0.3 °C 0.0 °C 1007.0 hPa Calm     94% 0.0 mm
22:18 0.2 °C -1.0 °C 1007.0 hPa Calm     94% 0.0 mm
22:22 0.2 °C -1.0 °C 1007.0 hPa Calm     94% 0.0 mm
22:26 0.3 °C 0.0 °C 1007.0 hPa West 4.3 km/h 4.3 km/h 94% 0.0 mm
22:30 0.3 °C 0.0 °C 1007.0 hPa Calm   6.4 km/h 94% 0.0 mm
22:33 0.3 °C 0.0 °C 1007.0 hPa West 2.6 km/h 6.4 km/h 94% 0.0 mm
22:34 0.3 °C 0.0 °C 1007.0 hPa Calm   6.4 km/h 94% 0.0 mm
22:36 0.3 °C 0.0 °C 1007.0 hPa West 5.0 km/h 6.4 km/h 94% 0.0 mm
22:41 0.4 °C 0.0 °C 1007.0 hPa Calm   6.4 km/h 95% 0.0 mm
22:43 0.4 °C 0.0 °C 1007.0 hPa Calm   6.4 km/h 95% 0.0 mm
22:48 0.4 °C 0.0 °C 1007.0 hPa Calm   6.1 km/h 95% 0.0 mm
22:53 0.4 °C 0.0 °C 1007.0 hPa Calm   5.8 km/h 94% 0.0 mm
22:58 0.3 °C 0.0 °C 1007.0 hPa Calm   6.4 km/h 94% 0.0 mm
22:59 0.3 °C 0.0 °C 1007.0 hPa West 1.8 km/h 6.4 km/h 94% 0.0 mm
23:04 0.3 °C 0.0 °C 1007.0 hPa West 3.5 km/h 6.4 km/h 94% 0.0 mm
23:06 0.2 °C -1.0 °C 1007.0 hPa Calm   6.4 km/h 94% 0.0 mm
23:11 0.0 °C -2.0 °C 1006.0 hPa Calm   5.5 km/h 93% 0.0 mm
23:13 0.0 °C -2.0 °C 1006.0 hPa Calm   5.5 km/h 93% 0.0 mm
23:17 -0.3 °C -2.0 °C 1006.0 hPa Calm     92% 0.0 mm
23:22 -0.6 °C -3.0 °C 1006.0 hPa Calm     91% 0.0 mm
23:24 -0.7 °C -3.0 °C 1006.0 hPa Calm     91% 0.0 mm
23:29 -0.9 °C -3.0 °C 1007.0 hPa Calm   4.0 km/h 91% 0.0 mm
23:34 -1.0 °C -3.0 °C 1007.0 hPa Calm   4.0 km/h 91% 0.0 mm
23:39 -1.0 °C -3.0 °C 1007.0 hPa WSW 6.4 km/h 6.4 km/h 93% 0.0 mm
23:40 -0.9 °C -3.0 °C 1007.0 hPa SW 4.7 km/h 6.4 km/h 92% 0.0 mm
23:41 -0.9 °C -3.0 °C 1006.0 hPa Calm   6.4 km/h 93% 0.0 mm
23:46 -0.8 °C -3.0 °C 1006.0 hPa Calm   6.9 km/h 94% 0.0 mm
23:47 -0.8 °C -3.0 °C 1006.0 hPa Calm   6.9 km/h 94% 0.0 mm
23:52 -0.7 °C -2.0 °C 1006.0 hPa Calm   6.9 km/h 95% 0.0 mm
23:53 -0.7 °C -2.0 °C 1006.0 hPa Calm   6.9 km/h 95% 0.0 mm
23:58 -0.8 °C -2.0 °C 1007.0 hPa Calm     95% 0.0 mm
Données Historique de Météo Turbie

Mise a jour : 20/05/2018 19:46:12
Généré par Cumulus 1.9.4 (1099)